Hourly Weather Luckeesarai

Today, 17 May, Monday

Time Temperature Precipitation Wind Pressure Humidity
00:00 +37°C° 0 mm 3 mps 749 mmHg 31%
01:00 +36°C° 0 mm 3 mps 748 mmHg 35%
02:00 +35°C° 0 mm 3 mps 748 mmHg 40%
03:00 +35°C° 0 mm 3 mps 748 mmHg 45%
04:00 +34°C° 0 mm 3 mps 748 mmHg 46%
05:00 +34°C° 0 mm 2 mps 748 mmHg 48%
06:00 +34°C° 0 mm 2 mps 749 mmHg 50%
07:00 +36°C° 0 mm 2 mps 749 mmHg 43%
08:00 +37°C° 0 mm 1 mps 749 mmHg 36%
09:00 +40°C° 0 mm 1 mps 750 mmHg 30%
10:00 +42°C° 0 mm 1 mps 749 mmHg 26%
11:00 +43°C° 0 mm 2 mps 749 mmHg 21%
12:00 +46°C° 0 mm 2 mps 749 mmHg 17%
13:00 +46°C° 0 mm 2 mps 748 mmHg 16%
14:00 +47°C° 0 mm 3 mps 747 mmHg 16%
15:00 +47°C° 0 mm 3 mps 746 mmHg 15%
16:00 +47°C° 0 mm 3 mps 746 mmHg 15%
17:00 +47°C° 0 mm 2 mps 745 mmHg 15%
18:00 +46°C° 0 mm 2 mps 745 mmHg 16%
19:00 +45°C° 0 mm 2 mps 746 mmHg 17%
20:00 +43°C° 0 mm 2 mps 746 mmHg 18%
21:00 +42°C° 0 mm 1 mps 746 mmHg 20%
22:00 +41°C° 0 mm 2 mps 746 mmHg 20%
23:00 +41°C° 0 mm 2 mps 746 mmHg 21%

Tomorrow, 18 May, Tuesday

Time Temperature Precipitation Wind Pressure Humidity
00:00 +41°C° 0 mm 2 mps 746 mmHg 21%
01:00 +40°C° 0 mm 2 mps 746 mmHg 24%
02:00 +39°C° 0 mm 2 mps 746 mmHg 27%
03:00 +38°C° 0 mm 2 mps 745 mmHg 30%
04:00 +38°C° 0 mm 3 mps 746 mmHg 34%
05:00 +37°C° 0 mm 3 mps 746 mmHg 38%
06:00 +36°C° 0 mm 3 mps 747 mmHg 41%
07:00 +37°C° 0 mm 3 mps 747 mmHg 41%
08:00 +38°C° 0 mm 3 mps 748 mmHg 41%
09:00 +38°C° 0 mm 2 mps 748 mmHg 41%
10:00 +40°C° 0 mm 2 mps 748 mmHg 35%
11:00 +43°C° 0 mm 3 mps 747 mmHg 29%
12:00 +45°C° 0 mm 3 mps 747 mmHg 24%
13:00 +46°C° 0 mm 3 mps 746 mmHg 22%
14:00 +48°C° 0 mm 4 mps 745 mmHg 21%
15:00 +48°C° 0 mm 4 mps 745 mmHg 19%
16:00 +48°C° 0 mm 4 mps 745 mmHg 20%
17:00 +47°C° 0 mm 4 mps 745 mmHg 20%
18:00 +47°C° 0 mm 4 mps 745 mmHg 21%
19:00 +44°C° 0 mm 4 mps 745 mmHg 24%
20:00 +42°C° 0 mm 5 mps 746 mmHg 28%
21:00 +41°C° 0 mm 5 mps 746 mmHg 31%
22:00 +40°C° 0 mm 4 mps 746 mmHg 32%
23:00 +38°C° 0 mm 3 mps 747 mmHg 33%

Day after tomorrow, 19 May, Wednesday

Time Temperature Precipitation Wind Pressure Humidity
00:00 +36°C° 0 mm 1 mps 747 mmHg 33%
01:00 +36°C° 0 mm 1 mps 746 mmHg 34%
02:00 +35°C° 0 mm 1 mps 746 mmHg 34%
03:00 +35°C° 0 mm 1 mps 746 mmHg 35%
04:00 +35°C° 0 mm 1 mps 746 mmHg 35%
05:00 +35°C° 0 mm 2 mps 746 mmHg 35%
06:00 +35°C° 0 mm 2 mps 747 mmHg 34%
07:00 +37°C° 0 mm 2 mps 747 mmHg 31%
08:00 +38°C° 0 mm 2 mps 747 mmHg 28%
09:00 +40°C° 0 mm 3 mps 748 mmHg 25%
10:00 +43°C° 0 mm 3 mps 747 mmHg 23%
11:00 +44°C° 0 mm 3 mps 747 mmHg 22%
12:00 +45°C° 0 mm 4 mps 747 mmHg 20%
13:00 +47°C° 0 mm 4 mps 746 mmHg 19%
14:00 +48°C° 0 mm 5 mps 745 mmHg 18%
15:00 +49°C° 0 mm 5 mps 744 mmHg 18%
16:00 +48°C° 0 mm 5 mps 743 mmHg 18%
17:00 +48°C° 0 mm 6 mps 743 mmHg 19%
18:00 +47°C° 0 mm 6 mps 742 mmHg 19%
19:00 +46°C° 0 mm 6 mps 743 mmHg 21%
20:00 +45°C° 0 mm 5 mps 744 mmHg 24%
21:00 +43°C° 0 mm 4 mps 745 mmHg 26%
22:00 +42°C° 0 mm 3 mps 745 mmHg 28%
23:00 +42°C° 0 mm 3 mps 745 mmHg 29%

20 May, Thursday

Time Temperature Precipitation Wind Pressure Humidity
00:00 +40°C° 0 mm 2 mps 745 mmHg 31%
01:00 +39°C° 0 mm 2 mps 745 mmHg 32%
02:00 +39°C° 0 mm 2 mps 745 mmHg 33%
03:00 +38°C° 0 mm 2 mps 745 mmHg 34%
04:00 +38°C° 0 mm 2 mps 745 mmHg 35%
05:00 +37°C° 0 mm 1 mps 745 mmHg 36%
06:00 +36°C° 0 mm 1 mps 746 mmHg 36%
07:00 +39°C° 0.1 mm 1 mps 746 mmHg 35%
08:00 +40°C° 0.1 mm 2 mps 747 mmHg 33%
09:00 +41°C° 0.1 mm 2 mps 747 mmHg 31%
10:00 +42°C° 0 mm 2 mps 747 mmHg 28%
11:00 +45°C° 0 mm 2 mps 746 mmHg 25%
12:00 +46°C° 0 mm 3 mps 746 mmHg 23%
13:00 +47°C° 0 mm 3 mps 745 mmHg 21%
14:00 +48°C° 0 mm 4 mps 745 mmHg 20%
15:00 +49°C° 0 mm 4 mps 744 mmHg 19%
16:00 +48°C° 0 mm 4 mps 744 mmHg 20%
17:00 +47°C° 0 mm 5 mps 743 mmHg 21%
18:00 +47°C° 0 mm 5 mps 743 mmHg 22%
19:00 +45°C° 0 mm 4 mps 744 mmHg 24%
20:00 +43°C° 0 mm 2 mps 744 mmHg 25%
21:00 +42°C° 0 mm 1 mps 745 mmHg 27%
22:00 +41°C° 0.2 mm 1 mps 745 mmHg 29%
23:00 +40°C° 0.2 mm 1 mps 745 mmHg 31%

21 May, Friday

Time Temperature Precipitation Wind Pressure Humidity
00:00 +39°C° 0.2 mm 2 mps 746 mmHg 33%
01:00 +39°C° 0.1 mm 1 mps 745 mmHg 34%
02:00 +37°C° 0.1 mm 1 mps 745 mmHg 36%
03:00 +37°C° 0.1 mm 1 mps 745 mmHg 37%
04:00 +36°C° 0.1 mm 1 mps 745 mmHg 39%
05:00 +36°C° 0.1 mm 1 mps 745 mmHg 40%
06:00 +36°C° 0.1 mm 2 mps 746 mmHg 41%
07:00 +38°C° 0 mm 2 mps 746 mmHg 38%
08:00 +40°C° 0 mm 2 mps 747 mmHg 34%
09:00 +42°C° 0 mm 3 mps 747 mmHg 31%
10:00 +44°C° 0 mm 3 mps 747 mmHg 28%
11:00 +45°C° 0 mm 3 mps 747 mmHg 26%
12:00 +47°C° 0 mm 4 mps 746 mmHg 24%
13:00 +46°C° 0 mm 3 mps 745 mmHg 23%
14:00 +46°C° 0 mm 3 mps 745 mmHg 22%
15:00 +47°C° 0 mm 3 mps 744 mmHg 21%
16:00 +46°C° 0 mm 3 mps 743 mmHg 22%
17:00 +47°C° 0 mm 4 mps 743 mmHg 22%
18:00 +45°C° 0 mm 4 mps 743 mmHg 23%
19:00 +44°C° 0 mm 3 mps 743 mmHg 25%
20:00 +43°C° 0 mm 3 mps 744 mmHg 27%
21:00 +41°C° 0 mm 2 mps 744 mmHg 28%
22:00 +41°C° 0 mm 2 mps 744 mmHg 27%
23:00 +40°C° 0 mm 3 mps 745 mmHg 26%

22 May, Saturday

Time Temperature Precipitation Wind Pressure Humidity
00:00 +41°C° 0 mm 4 mps 745 mmHg 25%
01:00 +41°C° 0 mm 4 mps 745 mmHg 27%
02:00 +40°C° 0 mm 4 mps 745 mmHg 29%
03:00 +38°C° 0 mm 4 mps 745 mmHg 31%
04:00 +38°C° 0 mm 3 mps 745 mmHg 33%
05:00 +37°C° 0 mm 3 mps 745 mmHg 36%
06:00 +36°C° 0 mm 2 mps 745 mmHg 38%
07:00 +37°C° 0 mm 2 mps 746 mmHg 36%
08:00 +39°C° 0 mm 3 mps 746 mmHg 35%
09:00 +40°C° 0 mm 3 mps 746 mmHg 33%
10:00 +42°C° 0 mm 3 mps 746 mmHg 30%
11:00 +44°C° 0 mm 3 mps 746 mmHg 28%
12:00 +45°C° 0 mm 3 mps 745 mmHg 25%
13:00 +47°C° 0 mm 4 mps 744 mmHg 23%
14:00 +48°C° 0 mm 4 mps 743 mmHg 21%
15:00 +48°C° 0 mm 4 mps 743 mmHg 18%
16:00 +48°C° 0 mm 4 mps 742 mmHg 18%
17:00 +48°C° 0 mm 4 mps 742 mmHg 17%
18:00 +48°C° 0 mm 5 mps 742 mmHg 16%
19:00 +47°C° 0 mm 4 mps 742 mmHg 20%
20:00 +44°C° 0 mm 4 mps 743 mmHg 23%
21:00 +43°C° 0 mm 3 mps 743 mmHg 27%
22:00 +42°C° 0 mm 3 mps 743 mmHg 33%
23:00 +39°C° 0 mm 3 mps 744 mmHg 39%
Show more

We Need Your Consent

Meteoprog and our Service Providers may store and access personal data such as cookies, device identifiers or other similar technologies on your device and process such data to personalise content and ads, as well as provide social media features and to analyse the traffic.

  • Store and/or access information on your device

    Cookies, device identifiers or other information can be stored or accessed on your device for the purposes indicated above.

  • Personalised ads and content, ad and content measurement, audience insights, and products development

    Ads and content can be personalised based on a profile. More data can be added to better personalise ads and content. Ad and content performance can be measured. Insights about the audience who saw the ads and content can be derived. Such data can be used to develop or improve user’s experience, systems and software.

By clicking ‘I Agree’ you will allow the use of indicated cookies, device identifiers, web beacons or other similar technologies. Your settings can be changed in the browser on your device.

For certain purposes, legitimate interests may be relied on, rather than consent. You can read more about this in our Privacy and Cookie Policy.